CDT,Max TemperatureF,Mean TemperatureF,Min TemperatureF,Max Dew PointF,MeanDew PointF,Min DewpointF,Max Humidity, Mean Humidity, Min Humidity, Max Sea Level PressureIn, Mean Sea Level PressureIn, Min Sea Level PressureIn, Max VisibilityMiles, Mean VisibilityMiles, Min VisibilityMiles, Max Wind SpeedMPH, Mean Wind SpeedMPH, Max Gust SpeedMPH,PrecipitationIn, CloudCover, Events, WindDirDegrees
2013-9-1,80,73,66,73,70,66,100,89,78,29.93,29.87,29.81,10,10,1,16,8,33,0.53,1,,204
2013-9-2,89,78,68,73,70,64,100,81,55,29.94,29.89,29.86,10,10,9,15,5,18,0.00,2,,262
2013-9-3,82,73,64,66,63,59,100,76,45,30.07,30.00,29.94,10,10,5,10,4,,0.00,1,,357
2013-9-4,80,70,59,64,61,57,100,77,48,30.17,30.12,30.06,10,9,2,8,3,,0.00,0,,45
2013-9-5,82,70,59,68,63,59,100,80,51,30.21,30.17,30.14,10,8,0,9,2,,0.00,0,,70
2013-9-6,84,74,64,68,66,64,100,80,51,30.19,30.14,30.08,10,8,0,9,2,,0.00,0,,105
2013-9-7,89,76,62,72,67,63,100,80,49,30.10,30.05,29.99,10,8,1,12,3,,0.00,0,,222
2013-9-8,89,78,68,75,70,66,94,75,46,30.02,29.98,29.93,10,10,5,10,5,,0.00,1,,196
2013-9-9,89,81,73,75,72,66,94,78,55,30.05,30.01,29.96,10,10,8,9,5,,0.00,1,,184
2013-9-10,86,80,73,75,72,72,94,81,62,30.17,30.12,30.05,10,10,8,8,5,,0.00,0,,173
2013-9-11,89,78,68,75,71,64,100,85,55,30.19,30.14,30.08,10,8,2,17,5,24,0.24,1,,198
2013-9-12,84,78,69,73,71,64,100,83,66,30.08,30.03,29.95,10,9,5,12,5,,0.00,1,,256
2013-9-13,73,65,57,64,55,50,88,69,44,30.07,30.04,30.00,10,10,8,17,8,22,0.00,1,,27
2013-9-14,71,60,48,54,49,46,100,72,43,30.15,30.09,30.06,10,9,3,18,5,23,0.00,0,,50
2013-9-15,78,63,48,61,54,48,100,74,42,30.12,30.09,30.07,10,8,2,10,3,,0.00,0,,202
2013-9-16,73,66,59,64,61,57,94,82,68,30.20,30.16,30.09,10,10,6,10,4,16,0.00,0,,15
2013-9-17,80,70,60,66,63,61,100,83,54,30.22,30.16,30.10,10,8,2,8,5,,0.00,0,,72
2013-9-18,82,73,64,72,68,64,100,86,66,30.15,30.10,30.05,10,8,3,10,4,17,0.00,0,,178
2013-9-19,84,76,68,72,69,66,94,81,62,30.12,30.06,29.99,10,9,5,12,7,21,0.00,1,,189
2013-9-20,80,73,66,73,68,64,100,88,73,30.00,29.92,29.84,10,7,0,13,7,24,2.25,0,,223
2013-9-21,71,63,55,66,54,48,100,73,43,29.92,29.88,29.81,10,9,2,17,8,25,0.13,0,,355
2013-9-22,71,61,51,55,51,48,94,71,43,29.99,29.95,29.91,10,10,6,13,5,17,0.00,0,,34
2013-9-23,75,62,50,61,55,50,100,79,50,30.03,29.97,29.94,10,10,8,10,4,,0.00,0,,84
2013-9-24,78,66,55,68,62,55,100,89,57,29.97,29.91,29.83,10,9,1,13,4,25,0.53,1,,140
2013-9-25,77,68,60,68,64,61,100,90,61,29.89,29.84,29.81,10,8,1,9,3,,0.00,0,,98
2013-9-26,80,70,59,68,63,59,100,85,51,30.04,29.97,29.88,10,6,0,9,2,,0.00,1,,82
2013-9-27,77,66,55,63,58,54,100,79,44,30.14,30.08,30.04,10,7,0,8,2,,0.00,0,,88
2013-9-28,77,68,60,61,58,55,94,70,47,30.17,30.10,30.06,10,10,9,12,6,20,0.00,0,,174
2013-9-29,66,62,59,63,60,57,100,90,73,30.09,30.04,30.00,10,6,1,10,6,,0.67,0,,178
2013-9-30,68,65,62,64,63,63,100,94,83,30.03,30.00,29.97,10,8,2,10,3,17,0.00,0,,172